| time (UTC) | temp C | wind direction | speed KPH | gust KPH | rain 1hr cm | rain 24hr cm | rain mn cm | humidity % | barometer mb |
| 20260510205023 | 18 | 234 | 3.2 | 11.3 | 0.00 | 0.00 | 0.00 | 72 | 1014.5 |
| 20260510204502 | 18 | 231 | 3.2 | 11.3 | 0.00 | 0.00 | 0.00 | 72 | 1014.5 |
| 20260510204002 | 18 | 227 | 3.2 | 8.0 | 0.00 | 0.00 | 0.00 | 72 | 1014.5 |
| 20260510203502 | 18 | 239 | 3.2 | 11.3 | 0.00 | 0.00 | 0.00 | 72 | 1014.5 |
| 20260510203002 | 18 | 268 | 1.6 | 11.3 | 0.00 | 0.00 | 0.00 | 73 | 1014.5 |
| 20260510202502 | 18 | 275 | 1.6 | 4.8 | 0.00 | 0.00 | 0.00 | 75 | 1014.5 |
| 20260510202023 | 18 | 248 | 1.6 | 8.0 | 0.00 | 0.00 | 0.00 | 75 | 1014.5 |
| 20260510201502 | 18 | 283 | 1.6 | 8.0 | 0.00 | 0.00 | 0.00 | 74 | 1014.5 |
| 20260510201002 | 17 | 218 | 1.6 | 8.0 | 0.00 | 0.00 | 0.00 | 78 | 1014.5 |
| 20260510200523 | 17 | 207 | 1.6 | 8.0 | 0.00 | 0.00 | 0.00 | 77 | 1014.5 |
| 20260510200002 | 17 | 206 | 1.6 | 8.0 | 0.00 | 0.00 | 0.00 | 77 | 1014.5 |
| 20260510195502 | 17 | 211 | 1.6 | 8.0 | 0.00 | 0.00 | 0.00 | 77 | 1014.5 |
| 20260510195024 | 17 | 225 | 0.0 | 4.8 | 0.00 | 0.00 | 0.00 | 78 | 1014.5 |
| 20260510194502 | 17 | 223 | 1.6 | 8.0 | 0.00 | 0.00 | 0.00 | 79 | 1014.5 |
| 20260510194003 | 16 | 227 | 1.6 | 8.0 | 0.00 | 0.00 | 0.00 | 81 | 1014.5 |
| 20260510193502 | 16 | 265 | 1.6 | 4.8 | 0.00 | 0.00 | 0.00 | 83 | 1014.5 |
| 20260510193023 | 16 | 242 | 1.6 | 8.0 | 0.00 | 0.00 | 0.00 | 84 | 1014.5 |
| 20260510192502 | 15 | 250 | 1.6 | 8.0 | 0.00 | 0.00 | 0.00 | 85 | 1014.5 |
| 20260510192002 | 15 | 267 | 0.0 | 4.8 | 0.00 | 0.00 | 0.00 | 88 | 1014.5 |
| 20260510191523 | 15 | 292 | 0.0 | 4.8 | 0.00 | 0.00 | 0.00 | 89 | 1014.5 |
| 20260510191002 | 15 | 254 | 0.0 | 4.8 | 0.00 | 0.00 | 0.00 | 91 | 1014.5 |
| 20260510190502 | 14 | 233 | 0.0 | 6.4 | 0.00 | 0.00 | 0.00 | 92 | 1014.5 |
| 20260510190023 | 14 | 243 | 1.6 | 8.0 | 0.00 | 0.00 | 0.00 | 93 | 1014.5 |
| 20260510185502 | 13 | 261 | 1.6 | 8.0 | 0.00 | 0.00 | 0.00 | 93 | 1014.5 |
| 20260510185002 | 13 | 270 | 1.6 | 4.8 | 0.00 | 0.00 | 0.00 | 94 | 1014.5 |
| 20260510184503 | 13 | 268 | 1.6 | 4.8 | 0.00 | 0.00 | 0.00 | 95 | 1014.5 |
| 20260510184002 | 13 | 265 | 0.0 | 6.4 | 0.00 | 0.00 | 0.00 | 95 | 1014.5 |
| 20260510183502 | 12 | 311 | 1.6 | 6.4 | 0.00 | 0.00 | 0.00 | 95 | 1014.5 |
| 20260510183002 | 12 | 324 | 1.6 | 6.4 | 0.00 | 0.00 | 0.00 | 95 | 1014.5 |
| 20260510182502 | 12 | 290 | 1.6 | 4.8 | 0.00 | 0.00 | 0.00 | 96 | 1014.5 |
| 20260510182002 | 12 | 230 | 1.6 | 6.4 | 0.00 | 0.00 | 0.00 | 96 | 1014.5 |
| 20260510181502 | 12 | 222 | 1.6 | 6.4 | 0.00 | 0.00 | 0.00 | 96 | 1014.5 |
| 20260510181002 | 12 | 230 | 1.6 | 6.4 | 0.00 | 0.00 | 0.00 | 96 | 1014.5 |
| 20260510180502 | 12 | 239 | 1.6 | 6.4 | 0.00 | 0.00 | 0.00 | 96 | 1014.5 |
| 20260510180002 | 12 | 242 | 1.6 | 8.0 | 0.00 | 0.00 | 0.00 | 96 | 1014.5 |
| 20260510175502 | 12 | 257 | 1.6 | 8.0 | 0.00 | 0.00 | 0.00 | 96 | 1014.5 |
| 20260510175002 | 12 | 299 | 0.0 | 4.8 | 0.00 | 0.00 | 0.00 | 96 | 1014.5 |
| 20260510174502 | 11 | 299 | 0.0 | 4.8 | 0.00 | 0.00 | 0.00 | 96 | 1014.5 |
| 20260510174002 | 11 | 305 | 1.6 | 4.8 | 0.00 | 0.00 | 0.00 | 96 | 1014.5 |
| 20260510173502 | 11 | 312 | 1.6 | 6.4 | 0.00 | 0.00 | 0.00 | 96 | 1014.5 |
| 20260510173002 | 11 | 261 | 1.6 | 6.4 | 0.00 | 0.00 | 0.00 | 96 | 1014.5 |
| 20260510172502 | 11 | 261 | 1.6 | 6.4 | 0.00 | 0.00 | 0.00 | 96 | 1014.5 |
| 20260510172023 | 11 | 293 | 0.0 | 4.8 | 0.00 | 0.00 | 0.00 | 96 | 1014.5 |
| 20260510171502 | 11 | 246 | 1.6 | 8.0 | 0.00 | 0.00 | 0.00 | 96 | 1014.5 |
| 20260510171002 | 11 | 265 | 1.6 | 8.0 | 0.00 | 0.00 | 0.00 | 96 | 1014.5 |
| 20260510170502 | 11 | 264 | 1.6 | 6.4 | 0.00 | 0.00 | 0.00 | 96 | 1014.5 |
| 20260510170023 | 11 | 253 | 1.6 | 4.8 | 0.00 | 0.00 | 0.00 | 96 | 1014.5 |
| 20260510165502 | 11 | 275 | 1.6 | 6.4 | 0.00 | 0.00 | 0.00 | 96 | 1014.5 |
| 20260510165002 | 11 | 213 | 1.6 | 6.4 | 0.00 | 0.00 | 0.00 | 96 | 1014.5 |
| 20260510164502 | 11 | 208 | 1.6 | 6.4 | 0.00 | 0.00 | 0.00 | 96 | 1014.5 |
| 20260510164002 | 11 | 242 | 0.0 | 4.8 | 0.00 | 0.00 | 0.00 | 96 | 1014.5 |
| 20260510163502 | 11 | 226 | 1.6 | 4.8 | 0.00 | 0.00 | 0.00 | 96 | 1014.5 |
| 20260510163002 | 11 | 222 | 1.6 | 9.7 | 0.00 | 0.00 | 0.00 | 96 | 1014.5 |
| 20260510162502 | 11 | 227 | 1.6 | 9.7 | 0.00 | 0.00 | 0.00 | 96 | 1014.5 |
| 20260510162002 | 11 | 241 | 1.6 | 6.4 | 0.00 | 0.00 | 0.00 | 96 | 1014.5 |
| 20260510161502 | 11 | 235 | 1.6 | 6.4 | 0.00 | 0.00 | 0.00 | 96 | 1014.5 |
| 20260510161002 | 11 | 234 | 1.6 | 6.4 | 0.00 | 0.00 | 0.00 | 96 | 1014.5 |
| 20260510160502 | 11 | 246 | 0.0 | 4.8 | 0.00 | 0.00 | 0.00 | 96 | 1014.5 |
| 20260510160003 | 11 | 246 | 0.0 | 8.0 | 0.00 | 0.00 | 0.00 | 96 | 1014.5 |
| 20260510155502 | 11 | 241 | 1.6 | 8.0 | 0.00 | 0.00 | 0.00 | 96 | 1014.5 |
| 20260510155002 | 10 | 241 | 1.6 | 4.8 | 0.00 | 0.00 | 0.00 | 96 | 1014.5 |
| 20260510154502 | 10 | 247 | 1.6 | 4.8 | 0.00 | 0.00 | 0.00 | 96 | 1014.5 |
| 20260510154023 | 10 | 261 | 0.0 | 4.8 | 0.00 | 0.00 | 0.00 | 96 | 1014.5 |
| 20260510153502 | 10 | 253 | 0.0 | 6.4 | 0.00 | 0.00 | 0.00 | 96 | 1014.5 |
| 20260510153002 | 10 | 237 | 0.0 | 6.4 | 0.00 | 0.00 | 0.00 | 96 | 1014.5 |
| 20260510152523 | 10 | 259 | 0.0 | 4.8 | 0.00 | 0.00 | 0.00 | 96 | 1014.5 |
| 20260510152002 | 10 | 268 | 0.0 | 4.8 | 0.00 | 0.00 | 0.00 | 96 | 1014.5 |
| 20260510151502 | 10 | 244 | 1.6 | 11.3 | 0.00 | 0.00 | 0.00 | 96 | 1014.5 |
| 20260510151002 | 10 | 235 | 1.6 | 11.3 | 0.00 | 0.00 | 0.00 | 96 | 1014.5 |
| 20260510150502 | 10 | 237 | 1.6 | 6.4 | 0.00 | 0.00 | 0.00 | 96 | 1014.5 |
| 20260510150002 | 10 | 239 | 1.6 | 6.4 | 0.00 | 0.00 | 0.00 | 96 | 1014.5 |
| 20260510145502 | 10 | 253 | 1.6 | 6.4 | 0.00 | 0.00 | 0.00 | 96 | 1014.5 |
| 20260510145002 | 10 | 255 | 1.6 | 6.4 | 0.00 | 0.00 | 0.00 | 96 | 1014.5 |
| 20260510144502 | 10 | 250 | 3.2 | 9.7 | 0.00 | 0.00 | 0.00 | 96 | 1014.5 |
| 20260510144002 | 10 | 248 | 3.2 | 9.7 | 0.00 | 0.00 | 0.00 | 96 | 1014.5 |
| 20260510143502 | 10 | 244 | 1.6 | 8.0 | 0.00 | 0.00 | 0.00 | 96 | 1014.5 |
| 20260510143023 | 10 | 242 | 1.6 | 6.4 | 0.00 | 0.00 | 0.00 | 96 | 1014.5 |
| 20260510142502 | 10 | 236 | 1.6 | 11.3 | 0.00 | 0.00 | 0.00 | 96 | 1014.5 |
| 20260510142023 | 10 | 231 | 1.6 | 11.3 | 0.00 | 0.00 | 0.00 | 96 | 1014.5 |
| 20260510141502 | 10 | 232 | 1.6 | 9.7 | 0.00 | 0.00 | 0.00 | 96 | 1014.5 |
| 20260510141003 | 10 | 237 | 1.6 | 9.7 | 0.00 | 0.00 | 0.00 | 96 | 1014.5 |
| 20260510140502 | 10 | 246 | 1.6 | 6.4 | 0.00 | 0.00 | 0.00 | 96 | 1014.5 |
| 20260510140002 | 10 | 242 | 1.6 | 6.4 | 0.00 | 0.00 | 0.00 | 95 | 1014.5 |
| 20260510135502 | 10 | 226 | 0.0 | 4.8 | 0.00 | 0.00 | 0.00 | 96 | 1014.5 |
| 20260510135002 | 10 | 242 | 1.6 | 6.4 | 0.00 | 0.00 | 0.00 | 96 | 1014.5 |
| 20260510134502 | 10 | 245 | 0.0 | 6.4 | 0.00 | 0.00 | 0.00 | 96 | 1014.5 |
| 20260510134003 | 10 | 248 | 1.6 | 6.4 | 0.00 | 0.00 | 0.00 | 96 | 1014.5 |
| 20260510133523 | 10 | 250 | 1.6 | 6.4 | 0.00 | 0.00 | 0.00 | 95 | 1014.5 |
| 20260510133003 | 10 | 244 | 1.6 | 8.0 | 0.00 | 0.00 | 0.00 | 96 | 1014.5 |
| 20260510132523 | 10 | 237 | 1.6 | 8.0 | 0.00 | 0.00 | 0.00 | 95 | 1014.5 |
| 20260510132003 | 10 | 256 | 0.0 | 8.0 | 0.00 | 0.00 | 0.00 | 95 | 1014.5 |
| 20260510131504 | 10 | 243 | 1.6 | 8.0 | 0.00 | 0.00 | 0.00 | 95 | 1014.5 |
| 20260510131002 | 10 | 229 | 1.6 | 8.0 | 0.00 | 0.00 | 0.00 | 95 | 1014.5 |
| 20260510130502 | 10 | 237 | 1.6 | 4.8 | 0.00 | 0.00 | 0.00 | 95 | 1014.5 |
| 20260510130002 | 10 | 242 | 1.6 | 8.0 | 0.00 | 0.00 | 0.00 | 95 | 1014.5 |
| 20260510125502 | 10 | 235 | 1.6 | 8.0 | 0.00 | 0.00 | 0.00 | 95 | 1014.5 |
| 20260510125002 | 10 | 233 | 1.6 | 8.0 | 0.00 | 0.00 | 0.00 | 95 | 1014.5 |
| 20260510124503 | 10 | 233 | 3.2 | 9.7 | 0.00 | 0.00 | 0.00 | 95 | 1014.5 |
| 20260510124003 | 10 | 239 | 3.2 | 9.7 | 0.00 | 0.00 | 0.00 | 95 | 1014.5 |
| 20260510123502 | 10 | 242 | 3.2 | 9.7 | 0.00 | 0.00 | 0.00 | 95 | 1014.5 |
| 20260510123002 | 10 | 233 | 1.6 | 6.4 | 0.00 | 0.00 | 0.00 | 95 | 1014.5 |
| 20260510122502 | 10 | 239 | 1.6 | 6.4 | 0.00 | 0.00 | 0.00 | 95 | 1014.5 |
| 20260510122002 | 10 | 259 | 0.0 | 6.4 | 0.00 | 0.00 | 0.00 | 95 | 1014.5 |
| 20260510121502 | 10 | 250 | 1.6 | 9.7 | 0.00 | 0.00 | 0.00 | 95 | 1014.5 |
| 20260510121023 | 10 | 246 | 1.6 | 9.7 | 0.00 | 0.00 | 0.00 | 95 | 1014.5 |
| 20260510120502 | 10 | 240 | 0.0 | 6.4 | 0.00 | 0.00 | 0.00 | 95 | 1014.5 |
| 20260510120002 | 10 | 238 | 1.6 | 8.0 | 0.00 | 0.00 | 0.00 | 95 | 1014.5 |
| 20260510115523 | 10 | 235 | 1.6 | 8.0 | 0.00 | 0.00 | 0.00 | 95 | 1014.5 |
| 20260510115023 | 10 | 239 | 1.6 | 6.4 | 0.00 | 0.00 | 0.00 | 95 | 1014.5 |
| 20260510114523 | 10 | 240 | 1.6 | 12.9 | 0.00 | 0.00 | 0.00 | 95 | 1014.5 |
| 20260510114002 | 10 | 242 | 1.6 | 12.9 | 0.00 | 0.00 | 0.00 | 95 | 1014.5 |
| 20260510113524 | 10 | 240 | 1.6 | 8.0 | 0.00 | 0.00 | 0.00 | 95 | 1014.5 |
| 20260510113002 | 10 | 227 | 3.2 | 9.7 | 0.00 | 0.00 | 0.00 | 95 | 1014.5 |
| 20260510112503 | 10 | 229 | 1.6 | 9.7 | 0.00 | 0.00 | 0.00 | 95 | 1014.5 |
| 20260510112003 | 10 | 240 | 1.6 | 6.4 | 0.00 | 0.00 | 0.00 | 95 | 1014.5 |
| 20260510111502 | 10 | 244 | 1.6 | 6.4 | 0.00 | 0.00 | 0.00 | 95 | 1014.5 |
| 20260510111023 | 10 | 247 | 3.2 | 12.9 | 0.00 | 0.00 | 0.00 | 95 | 1014.5 |
| 20260510110502 | 10 | 242 | 1.6 | 12.9 | 0.00 | 0.00 | 0.00 | 95 | 1014.5 |
| 20260510110024 | 10 | 240 | 1.6 | 9.7 | 0.00 | 0.00 | 0.00 | 95 | 1015.2 |
| 20260510105502 | 10 | 241 | 1.6 | 11.3 | 0.00 | 0.00 | 0.00 | 95 | 1015.2 |
| 20260510105002 | 10 | 246 | 3.2 | 11.3 | 0.00 | 0.00 | 0.00 | 95 | 1015.2 |
| 20260510104502 | 10 | 250 | 3.2 | 11.3 | 0.00 | 0.00 | 0.00 | 95 | 1015.2 |
| 20260510104002 | 10 | 249 | 1.6 | 11.3 | 0.00 | 0.00 | 0.00 | 95 | 1015.2 |
| 20260510103502 | 10 | 247 | 1.6 | 8.0 | 0.00 | 0.00 | 0.00 | 95 | 1015.2 |
| 20260510103002 | 10 | 242 | 1.6 | 4.8 | 0.00 | 0.00 | 0.00 | 95 | 1015.2 |
| 20260510102502 | 10 | 241 | 1.6 | 6.4 | 0.00 | 0.00 | 0.00 | 95 | 1015.2 |
| 20260510102023 | 10 | 240 | 1.6 | 6.4 | 0.00 | 0.00 | 0.00 | 95 | 1015.2 |
| 20260510101502 | 10 | 232 | 1.6 | 8.0 | 0.00 | 0.00 | 0.00 | 95 | 1015.2 |
| 20260510101002 | 10 | 236 | 1.6 | 8.0 | 0.00 | 0.00 | 0.00 | 94 | 1015.2 |
| 20260510100502 | 10 | 251 | 1.6 | 8.0 | 0.00 | 0.00 | 0.00 | 95 | 1015.2 |
| 20260510100003 | 10 | 245 | 1.6 | 8.0 | 0.00 | 0.00 | 0.00 | 94 | 1015.2 |
| 20260510095502 | 10 | 233 | 1.6 | 8.0 | 0.00 | 0.00 | 0.00 | 94 | 1015.2 |
| 20260510095002 | 10 | 236 | 1.6 | 4.8 | 0.00 | 0.00 | 0.00 | 94 | 1015.2 |
| 20260510094503 | 10 | 232 | 1.6 | 12.9 | 0.00 | 0.00 | 0.00 | 94 | 1015.2 |
| 20260510094003 | 10 | 237 | 1.6 | 12.9 | 0.00 | 0.00 | 0.00 | 94 | 1015.2 |
| 20260510093503 | 10 | 251 | 1.6 | 6.4 | 0.00 | 0.00 | 0.00 | 94 | 1015.2 |
| 20260510093002 | 10 | 238 | 1.6 | 8.0 | 0.00 | 0.00 | 0.00 | 94 | 1015.2 |
| 20260510092502 | 10 | 242 | 1.6 | 8.0 | 0.00 | 0.00 | 0.00 | 94 | 1015.2 |
| 20260510092002 | 10 | 251 | 1.6 | 8.0 | 0.00 | 0.00 | 0.00 | 94 | 1015.2 |
| 20260510091503 | 10 | 244 | 1.6 | 4.8 | 0.00 | 0.00 | 0.00 | 94 | 1015.2 |
| 20260510091002 | 10 | 231 | 1.6 | 9.7 | 0.00 | 0.00 | 0.00 | 94 | 1015.2 |
| 20260510090503 | 10 | 238 | 1.6 | 9.7 | 0.00 | 0.00 | 0.00 | 94 | 1015.2 |
| 20260510090002 | 10 | 246 | 1.6 | 12.9 | 0.00 | 0.00 | 0.00 | 94 | 1015.2 |
| 20260510085523 | 10 | 239 | 1.6 | 12.9 | 0.00 | 0.00 | 0.00 | 94 | 1015.2 |
| 20260510085002 | 10 | 237 | 1.6 | 14.5 | 0.00 | 0.00 | 0.00 | 94 | 1015.2 |
| 20260510084502 | 10 | 251 | 1.6 | 14.5 | 0.00 | 0.00 | 0.00 | 94 | 1015.2 |
| 20260510084003 | 10 | 255 | 1.6 | 8.0 | 0.00 | 0.00 | 0.00 | 93 | 1015.2 |
| 20260510083502 | 10 | 243 | 1.6 | 6.4 | 0.00 | 0.00 | 0.00 | 93 | 1015.2 |
| 20260510083023 | 10 | 235 | 1.6 | 4.8 | 0.00 | 0.00 | 0.00 | 93 | 1015.2 |
| 20260510082524 | 10 | 230 | 1.6 | 8.0 | 0.00 | 0.00 | 0.00 | 93 | 1015.2 |
| 20260510082003 | 10 | 236 | 1.6 | 9.7 | 0.00 | 0.00 | 0.00 | 93 | 1015.2 |
| 20260510081502 | 10 | 250 | 1.6 | 14.5 | 0.00 | 0.00 | 0.00 | 93 | 1015.2 |
| 20260510081002 | 10 | 245 | 1.6 | 14.5 | 0.00 | 0.00 | 0.00 | 93 | 1015.2 |
| 20260510080502 | 11 | 242 | 1.6 | 4.8 | 0.00 | 0.00 | 0.00 | 93 | 1015.2 |
| 20260510080002 | 11 | 239 | 1.6 | 8.0 | 0.00 | 0.00 | 0.00 | 93 | 1015.2 |
| 20260510075502 | 11 | 232 | 1.6 | 8.0 | 0.00 | 0.00 | 0.00 | 93 | 1015.2 |
| 20260510075002 | 11 | 246 | 0.0 | 6.4 | 0.00 | 0.00 | 0.00 | 93 | 1015.2 |
| 20260510074502 | 11 | 237 | 1.6 | 8.0 | 0.00 | 0.00 | 0.00 | 93 | 1015.2 |
| 20260510074024 | 11 | 231 | 1.6 | 9.7 | 0.00 | 0.00 | 0.00 | 93 | 1015.2 |
| 20260510073503 | 11 | 229 | 1.6 | 9.7 | 0.00 | 0.00 | 0.00 | 92 | 1015.2 |
| 20260510073002 | 11 | 235 | 0.0 | 6.4 | 0.00 | 0.00 | 0.00 | 93 | 1015.2 |
| 20260510072524 | 11 | 231 | 1.6 | 9.7 | 0.00 | 0.00 | 0.00 | 92 | 1015.2 |
| 20260510072002 | 11 | 230 | 1.6 | 9.7 | 0.00 | 0.00 | 0.00 | 92 | 1015.2 |
| 20260510071502 | 11 | 243 | 0.0 | 3.2 | 0.00 | 0.00 | 0.00 | 92 | 1015.2 |
| 20260510071002 | 11 | 251 | 0.0 | 3.2 | 0.00 | 0.00 | 0.00 | 92 | 1015.2 |
| 20260510070503 | 11 | 260 | 0.0 | 4.8 | 0.00 | 0.00 | 0.00 | 92 | 1015.2 |
| 20260510070008 | 11 | 244 | 0.0 | 4.8 | 0.00 | 0.00 | 0.00 | 92 | 1015.2 |
| 20260510065503 | 11 | 233 | 0.0 | 4.8 | 0.00 | 0.00 | 0.00 | 92 | 1015.2 |
| 20260510065003 | 11 | 231 | 1.6 | 6.4 | 0.00 | 0.00 | 0.00 | 92 | 1015.2 |
| 20260510064503 | 11 | 235 | 1.6 | 6.4 | 0.00 | 0.00 | 0.00 | 92 | 1015.2 |
| 20260510064003 | 11 | 230 | 1.6 | 8.0 | 0.00 | 0.00 | 0.00 | 92 | 1015.2 |
| 20260510063003 | 11 | 239 | 1.6 | 11.3 | 0.00 | 0.00 | 0.00 | 91 | 1015.2 |
| 20260510062503 | 11 | 246 | 1.6 | 11.3 | 0.00 | 0.00 | 0.00 | 91 | 1015.2 |
| 20260510062002 | 11 | 245 | 1.6 | 4.8 | 0.00 | 0.00 | 0.00 | 92 | 1015.2 |
| 20260510061503 | 11 | 231 | 1.6 | 4.8 | 0.00 | 0.00 | 0.00 | 91 | 1015.2 |
| 20260510061003 | 11 | 226 | 1.6 | 8.0 | 0.00 | 0.00 | 0.00 | 91 | 1015.2 |
| 20260510060502 | 11 | 224 | 1.6 | 8.0 | 0.00 | 0.00 | 0.00 | 91 | 1015.2 |
| 20260510060002 | 11 | 218 | 1.6 | 8.0 | 0.00 | 0.00 | 0.00 | 91 | 1015.2 |
| 20260510055502 | 11 | 215 | 1.6 | 8.0 | 0.00 | 0.00 | 0.00 | 91 | 1015.2 |
| 20260510055002 | 11 | 221 | 1.6 | 6.4 | 0.00 | 0.00 | 0.00 | 91 | 1015.2 |
| 20260510054503 | 11 | 231 | 1.6 | 6.4 | 0.00 | 0.00 | 0.00 | 91 | 1015.2 |
| 20260510054002 | 11 | 226 | 1.6 | 9.7 | 0.00 | 0.00 | 0.00 | 91 | 1015.2 |
| 20260510053503 | 11 | 228 | 1.6 | 9.7 | 0.00 | 0.00 | 0.00 | 91 | 1015.2 |
| 20260510053003 | 11 | 234 | 1.6 | 6.4 | 0.00 | 0.00 | 0.00 | 90 | 1015.2 |
| 20260510052524 | 11 | 229 | 1.6 | 9.7 | 0.00 | 0.00 | 0.00 | 90 | 1015.2 |
| 20260510052002 | 11 | 229 | 1.6 | 9.7 | 0.00 | 0.00 | 0.00 | 90 | 1015.2 |
| 20260510051503 | 11 | 236 | 1.6 | 6.4 | 0.00 | 0.00 | 0.00 | 90 | 1015.2 |
| 20260510051003 | 11 | 237 | 0.0 | 4.8 | 0.00 | 0.00 | 0.00 | 90 | 1015.2 |
| 20260510050503 | 11 | 241 | 1.6 | 6.4 | 0.00 | 0.00 | 0.00 | 90 | 1015.2 |
| 20260510050003 | 11 | 243 | 1.6 | 6.4 | 0.00 | 0.00 | 0.00 | 90 | 1015.2 |
| 20260510045503 | 12 | 233 | 1.6 | 8.0 | 0.00 | 0.00 | 0.00 | 90 | 1015.2 |
| 20260510045023 | 12 | 223 | 0.0 | 8.0 | 0.00 | 0.00 | 0.00 | 90 | 1015.2 |
| 20260510044502 | 12 | 230 | 0.0 | 6.4 | 0.00 | 0.00 | 0.00 | 90 | 1015.2 |
| 20260510044002 | 12 | 228 | 0.0 | 6.4 | 0.00 | 0.00 | 0.00 | 90 | 1015.2 |
| 20260510043502 | 12 | 223 | 0.0 | 4.8 | 0.00 | 0.00 | 0.00 | 89 | 1015.2 |
| 20260510043003 | 12 | 226 | 0.0 | 4.8 | 0.00 | 0.00 | 0.00 | 90 | 1015.2 |
| 20260510042503 | 12 | 245 | 0.0 | 6.4 | 0.00 | 0.00 | 0.00 | 89 | 1015.2 |
| 20260510042003 | 12 | 243 | 0.0 | 6.4 | 0.00 | 0.00 | 0.00 | 89 | 1015.2 |
| 20260510041503 | 12 | 224 | 0.0 | 6.4 | 0.00 | 0.00 | 0.00 | 89 | 1015.2 |
| 20260510041024 | 12 | 215 | 1.6 | 6.4 | 0.00 | 0.00 | 0.00 | 89 | 1015.2 |
| 20260510040503 | 12 | 230 | 1.6 | 6.4 | 0.00 | 0.00 | 0.00 | 88 | 1015.2 |
| 20260510040003 | 12 | 235 | 1.6 | 8.0 | 0.00 | 0.00 | 0.00 | 88 | 1015.2 |
| 20260510035503 | 12 | 235 | 1.6 | 8.0 | 0.00 | 0.00 | 0.00 | 88 | 1015.2 |
| 20260510035003 | 12 | 246 | 1.6 | 8.0 | 0.00 | 0.00 | 0.00 | 88 | 1015.2 |
| 20260510034503 | 12 | 245 | 1.6 | 8.0 | 0.00 | 0.00 | 0.00 | 88 | 1015.2 |
| 20260510034003 | 12 | 239 | 0.0 | 4.8 | 0.00 | 0.00 | 0.00 | 88 | 1015.2 |
| 20260510033503 | 13 | 225 | 0.0 | 3.2 | 0.00 | 0.00 | 0.00 | 88 | 1015.2 |
| 20260510033024 | 13 | 221 | 0.0 | 1.6 | 0.00 | 0.00 | 0.00 | 88 | 1015.2 |
| 20260510032502 | 13 | 228 | 0.0 | 6.4 | 0.00 | 0.00 | 0.00 | 87 | 1015.2 |
| 20260510032002 | 13 | 231 | 1.6 | 6.4 | 0.00 | 0.00 | 0.00 | 87 | 1015.2 |
| 20260510031503 | 13 | 235 | 1.6 | 6.4 | 0.00 | 0.00 | 0.00 | 87 | 1015.2 |
| 20260510031002 | 13 | 221 | 1.6 | 6.4 | 0.00 | 0.00 | 0.00 | 87 | 1015.2 |
| 20260510030524 | 13 | 218 | 1.6 | 6.4 | 0.00 | 0.00 | 0.00 | 87 | 1015.2 |
| 20260510030003 | 13 | 241 | 1.6 | 4.8 | 0.00 | 0.00 | 0.00 | 87 | 1015.2 |
| 20260510025524 | 13 | 248 | 1.6 | 4.8 | 0.00 | 0.00 | 0.00 | 86 | 1015.2 |
| 20260510025003 | 13 | 265 | 0.0 | 4.8 | 0.00 | 0.00 | 0.00 | 86 | 1015.2 |
| 20260510024503 | 13 | 286 | 1.6 | 4.8 | 0.00 | 0.00 | 0.00 | 85 | 1015.2 |
| 20260510024003 | 13 | 249 | 1.6 | 6.4 | 0.00 | 0.00 | 0.00 | 85 | 1015.2 |
| 20260510023503 | 13 | 224 | 1.6 | 6.4 | 0.00 | 0.00 | 0.00 | 85 | 1015.2 |
| 20260510023002 | 13 | 215 | 1.6 | 8.0 | 0.00 | 0.00 | 0.00 | 85 | 1015.2 |
| 20260510022503 | 14 | 219 | 1.6 | 8.0 | 0.00 | 0.00 | 0.00 | 84 | 1015.2 |
| 20260510022003 | 14 | 222 | 0.0 | 8.0 | 0.00 | 0.00 | 0.00 | 84 | 1015.2 |
| 20260510021502 | 14 | 226 | 1.6 | 8.0 | 0.00 | 0.00 | 0.00 | 83 | 1015.2 |
| 20260510021002 | 14 | 237 | 1.6 | 6.4 | 0.00 | 0.00 | 0.00 | 83 | 1015.2 |
| 20260510020503 | 15 | 226 | 1.6 | 6.4 | 0.00 | 0.00 | 0.00 | 82 | 1015.2 |
| 20260510020003 | 15 | 215 | 1.6 | 6.4 | 0.00 | 0.00 | 0.00 | 82 | 1015.2 |
| 20260510015503 | 15 | 222 | 1.6 | 6.4 | 0.00 | 0.00 | 0.00 | 81 | 1015.2 |
| 20260510015002 | 15 | 242 | 1.6 | 4.8 | 0.00 | 0.00 | 0.00 | 81 | 1015.2 |
| 20260510014503 | 15 | 232 | 1.6 | 6.4 | 0.00 | 0.00 | 0.00 | 81 | 1015.2 |
| 20260510014003 | 15 | 222 | 1.6 | 11.3 | 0.00 | 0.00 | 0.00 | 80 | 1015.2 |
| 20260510013503 | 15 | 219 | 1.6 | 12.9 | 0.00 | 0.00 | 0.00 | 80 | 1015.2 |
| 20260510013003 | 16 | 222 | 1.6 | 12.9 | 0.00 | 0.00 | 0.00 | 79 | 1015.2 |
| 20260510012502 | 16 | 219 | 1.6 | 6.4 | 0.00 | 0.00 | 0.00 | 79 | 1015.2 |
| 20260510012003 | 16 | 257 | 1.6 | 8.0 | 0.00 | 0.00 | 0.00 | 78 | 1015.2 |
| 20260510011503 | 16 | 262 | 1.6 | 8.0 | 0.00 | 0.00 | 0.00 | 77 | 1015.2 |
| 20260510011002 | 16 | 222 | 1.6 | 8.0 | 0.00 | 0.00 | 0.00 | 77 | 1015.2 |
| 20260510010502 | 17 | 225 | 3.2 | 8.0 | 0.00 | 0.00 | 0.00 | 76 | 1015.2 |
| 20260510010024 | 17 | 264 | 1.6 | 6.4 | 0.00 | 0.00 | 0.00 | 76 | 1015.2 |
| 20260510005503 | 17 | 276 | 1.6 | 8.0 | 0.00 | 0.00 | 0.00 | 75 | 1015.2 |
| 20260510005003 | 17 | 251 | 1.6 | 8.0 | 0.00 | 0.00 | 0.00 | 74 | 1015.2 |
| 20260510004524 | 17 | 285 | 1.6 | 9.7 | 0.00 | 0.00 | 0.00 | 74 | 1015.2 |
| 20260510004002 | 18 | 326 | 1.6 | 9.7 | 0.00 | 0.00 | 0.00 | 74 | 1015.2 |
| 20260510003502 | 18 | 312 | 1.6 | 8.0 | 0.00 | 0.00 | 0.00 | 74 | 1015.2 |
| 20260510003003 | 18 | 287 | 1.6 | 8.0 | 0.00 | 0.00 | 0.00 | 74 | 1015.2 |
| 20260510002524 | 18 | 343 | 1.6 | 8.0 | 0.00 | 0.00 | 0.00 | 73 | 1015.2 |
| 20260510002002 | 18 | 360 | 1.6 | 8.0 | 0.00 | 0.00 | 0.00 | 73 | 1015.2 |
| 20260510001503 | 18 | 335 | 1.6 | 8.0 | 0.00 | 0.00 | 0.00 | 73 | 1015.2 |
| 20260510001003 | 18 | 305 | 1.6 | 8.0 | 0.00 | 0.00 | 0.00 | 73 | 1015.2 |
| 20260510000503 | 18 | 293 | 1.6 | 8.0 | 0.00 | 0.00 | 0.00 | 73 | 1015.2 |
| 20260510000003 | 18 | 308 | 3.2 | 9.7 | 0.00 | 0.00 | 0.00 | 72 | 1015.2 |
| 20260509235503 | 18 | 308 | 1.6 | 11.3 | 0.00 | 0.00 | 0.00 | 72 | 1015.2 |
| 20260509235003 | 18 | 341 | 3.2 | 14.5 | 0.00 | 0.00 | 0.00 | 72 | 1015.2 |
| 20260509234503 | 18 | 279 | 3.2 | 14.5 | 0.00 | 0.00 | 0.00 | 72 | 1015.2 |
| 20260509234024 | 18 | 251 | 3.2 | 17.7 | 0.00 | 0.00 | 0.00 | 71 | 1015.2 |
| 20260509233524 | 19 | 306 | 3.2 | 17.7 | 0.00 | 0.00 | 0.00 | 71 | 1015.2 |
| 20260509233003 | 19 | 314 | 3.2 | 11.3 | 0.00 | 0.00 | 0.00 | 71 | 1015.2 |
| 20260509232503 | 19 | 329 | 1.6 | 11.3 | 0.00 | 0.00 | 0.00 | 71 | 1015.2 |
| 20260509232002 | 19 | 336 | 3.2 | 11.3 | 0.00 | 0.00 | 0.00 | 71 | 1015.2 |
| 20260509231503 | 19 | 337 | 3.2 | 12.9 | 0.00 | 0.00 | 0.00 | 71 | 1015.2 |
| 20260509231024 | 19 | 324 | 3.2 | 12.9 | 0.00 | 0.00 | 0.00 | 71 | 1015.2 |
| 20260509230503 | 19 | 295 | 3.2 | 8.0 | 0.00 | 0.00 | 0.00 | 71 | 1015.2 |
| 20260509230003 | 20 | 332 | 3.2 | 9.7 | 0.00 | 0.00 | 0.00 | 69 | 1015.2 |
| 20260509225503 | 20 | 343 | 1.6 | 12.9 | 0.00 | 0.00 | 0.00 | 69 | 1015.2 |
| 20260509225002 | 20 | 326 | 1.6 | 12.9 | 0.00 | 0.00 | 0.00 | 70 | 1015.2 |
| 20260509224502 | 20 | 296 | 3.2 | 12.9 | 0.00 | 0.00 | 0.00 | 70 | 1015.2 |
| 20260509224024 | 20 | 297 | 3.2 | 8.0 | 0.00 | 0.00 | 0.00 | 70 | 1015.2 |
| 20260509223503 | 20 | 341 | 3.2 | 12.9 | 0.00 | 0.00 | 0.00 | 69 | 1015.2 |
| 20260509223003 | 20 | 326 | 3.2 | 12.9 | 0.00 | 0.00 | 0.00 | 68 | 1015.2 |
| 20260509222524 | 20 | 299 | 3.2 | 8.0 | 0.00 | 0.00 | 0.00 | 68 | 1015.2 |
| 20260509222003 | 20 | 327 | 3.2 | 8.0 | 0.00 | 0.00 | 0.00 | 69 | 1015.2 |
| 20260509221503 | 20 | 327 | 1.6 | 8.0 | 0.00 | 0.00 | 0.00 | 68 | 1015.2 |
| 20260509221003 | 20 | 272 | 1.6 | 8.0 | 0.00 | 0.00 | 0.00 | 68 | 1015.2 |
| 20260509220503 | 20 | 334 | 1.6 | 8.0 | 0.00 | 0.00 | 0.00 | 66 | 1015.2 |
| 20260509220003 | 21 | 335 | 1.6 | 8.0 | 0.00 | 0.00 | 0.00 | 67 | 1015.2 |
| 20260509215524 | 21 | 251 | 1.6 | 9.7 | 0.00 | 0.00 | 0.00 | 67 | 1015.2 |
| 20260509215003 | 21 | 271 | 1.6 | 9.7 | 0.00 | 0.00 | 0.00 | 67 | 1015.2 |
| 20260509214503 | 21 | 275 | 1.6 | 6.4 | 0.00 | 0.00 | 0.00 | 67 | 1015.2 |
| 20260509214003 | 21 | 274 | 1.6 | 6.4 | 0.00 | 0.00 | 0.00 | 65 | 1015.2 |
| 20260509213503 | 21 | 273 | 1.6 | 14.5 | 0.00 | 0.00 | 0.00 | 66 | 1015.2 |
| 20260509213024 | 21 | 278 | 1.6 | 14.5 | 0.00 | 0.00 | 0.00 | 67 | 1015.2 |
| 20260509212524 | 20 | 252 | 1.6 | 8.0 | 0.00 | 0.00 | 0.00 | 67 | 1015.2 |
| 20260509212003 | 20 | 265 | 3.2 | 8.0 | 0.00 | 0.00 | 0.00 | 65 | 1015.2 |
| 20260509211503 | 20 | 239 | 3.2 | 9.7 | 0.00 | 0.00 | 0.00 | 67 | 1015.2 |
| 20260509211003 | 20 | 221 | 3.2 | 9.7 | 0.00 | 0.00 | 0.00 | 65 | 1015.2 |
| 20260509210503 | 21 | 239 | 3.2 | 8.0 | 0.00 | 0.00 | 0.00 | 64 | 1015.2 |
| 20260509210003 | 21 | 245 | 1.6 | 6.4 | 0.00 | 0.00 | 0.00 | 63 | 1015.2 |
| 20260509205503 | 21 | 223 | 1.6 | 8.0 | 0.00 | 0.00 | 0.00 | 65 | 1015.2 |